Weather History for Palma de Mallorca, Spain

Change the Weather History Date:

Thursday, April 17, 2014

  Actual Average Record
Temperature  
Mean Temperature 58 °F -  
Max Temperature 71 °F 70 °F 72 °F (2013)
Min Temperature 46 °F 50 °F 41 °F (2002)
Degree Days  
Heating Degree Days 6    
Growing Degree Days 8 (Base 50)    
Moisture  
Dew Point 50 °F    
Average Humidity 69    
Maximum Humidity 88    
Minimum Humidity 42    
Precipitation  
Precipitation 0.00 in 0.04 in - ()
Sea Level Pressure  
Sea Level Pressure 30.09 in    
Wind  
Wind Speed 5 mph ()    
Max Wind Speed 16 mph    
Max Gust Speed -    
Visibility 7.7 miles    
Events      
Averages and records for this station are not official NWS values.
T = Trace of Precipitation, MM = Missing Value Source: Averaged Metar Reports

Daily Weather History Graph

Daily Weather History Graph

Search for Another Location

Airport:

Trip Planner

Search our weather history database for the weather conditions in past years. The results will help you decide how hot, cold, wet, or windy it might be!

Date:

Astronomy

Apr. 17, 2014 Rise Set
Actual Time 7:09 AM CEST 8:28 PM CEST
Civil Twilight 6:41 AM CEST 8:56 PM CEST
Nautical Twilight 6:07 AM CEST 9:30 PM CEST
Astronomical Twilight 5:32 AM CEST 10:05 PM CEST
Moon 10:58 PM CEST (4/17) 8:29 AM CEST (4/17)
Length of Visible Light 14h 15m
Length of Day
13h 19m
Waning Gibbous, 95% of the Moon is Illuminated
Apr 17
Waning Gibbous
Apr 22
Last Quarter
Apr 29
New
May 7
First Quarter
May 14
Full

Hourly Weather History & Observations

Time (CEST) Temp. Dew Point Humidity Pressure Visibility Wind Dir Wind Speed Gust Speed Precip Events Conditions
12:00 AM 53 °F 42 °F 58% 30.14 in - NNE 2.3 mph - -  
12:00 AM 53.6 °F 44.6 °F 72% 30.12 in - NE 3.5 mph - N/A   Clear
12:30 AM 51.8 °F 42.8 °F 71% 30.12 in - NNE 4.6 mph - N/A   Clear
1:00 AM 52 °F 42 °F 60% 30.14 in - NE 2.3 mph - -  
1:00 AM 51.8 °F 42.8 °F 71% 30.12 in - NE 4.6 mph - N/A   Clear
1:30 AM 51.8 °F 44.6 °F 76% 30.12 in - NNE 6.9 mph - N/A   Clear
2:00 AM 50 °F 42 °F 65% 30.14 in 11 mi North 2.3 mph - -  
2:00 AM 50.0 °F 42.8 °F 76% 30.12 in - NE 6.9 mph - N/A   Clear
2:30 AM 50.0 °F 42.8 °F 76% 30.12 in - NE 4.6 mph - N/A   Clear
3:00 AM 49 °F 43 °F 74% 30.12 in - NE 2.3 mph - -  
3:00 AM 50.0 °F 42.8 °F 76% 30.09 in - NNE 4.6 mph - N/A   Clear
3:30 AM 50.0 °F 42.8 °F 76% 30.09 in - NE 5.8 mph - N/A   Clear
4:00 AM 49 °F 42 °F 69% 30.11 in - Calm Calm - -  
4:00 AM 50.0 °F 42.8 °F 76% 30.09 in - NNE 6.9 mph - N/A   Clear
4:30 AM 48.2 °F 42.8 °F 82% 30.09 in - NNE 6.9 mph - N/A   Clear
5:00 AM 47 °F 42 °F 77% 30.12 in 11 mi Calm Calm - -  
5:00 AM 48.2 °F 42.8 °F 82% 30.09 in - ENE 8.1 mph - N/A   Clear
5:30 AM 50.0 °F 44.6 °F 82% 30.09 in - ENE 6.9 mph - N/A   Clear
6:00 AM 49 °F 44 °F 79% 30.11 in - NNE 1.2 mph - -  
6:00 AM 50.0 °F 44.6 °F 82% 30.09 in 6.2 mi NE 5.8 mph - N/A   Partly Cloudy
6:30 AM 50.0 °F 46.4 °F 87% 30.09 in 6.2 mi NE 3.5 mph - N/A   Partly Cloudy
7:00 AM 51 °F 44 °F 71% 30.11 in - Calm Calm - -  
7:00 AM 51.8 °F 44.6 °F 76% 30.09 in 6.2 mi ENE 2.3 mph - N/A   Partly Cloudy
7:30 AM 51.8 °F 46.4 °F 82% 30.09 in 6.2 mi NE 3.5 mph - N/A   Partly Cloudy
8:00 AM 52 °F 46 °F 72% 30.12 in 12 mi Calm Calm - -   Partly Cloudy
8:00 AM 51.8 °F 46.4 °F 82% 30.09 in 6.2 mi Calm Calm - N/A   Partly Cloudy
8:30 AM 53.6 °F 48.2 °F 82% 30.12 in 6.2 mi Variable 2.3 mph - N/A   Partly Cloudy
9:00 AM 58 °F 50 °F 66% 30.12 in - Calm Calm - -  
9:00 AM 57.2 °F 50.0 °F 77% 30.09 in 6.2 mi Variable 2.3 mph - N/A   Partly Cloudy
9:30 AM 60.8 °F 51.8 °F 72% 30.09 in 6.2 mi ENE 3.5 mph - N/A   Partly Cloudy
10:00 AM 63 °F 52 °F 58% 30.12 in - ENE 4.6 mph - -  
10:00 AM 62.6 °F 51.8 °F 68% 30.12 in 6.2 mi NE 4.6 mph - N/A   Partly Cloudy
10:30 AM 64.4 °F 51.8 °F 64% 30.12 in 6.2 mi Variable 2.3 mph - N/A   Partly Cloudy
11:00 AM 67 °F 51 °F 46% 30.13 in 16 mi East 1.2 mph - -   Scattered Clouds
11:00 AM 66.2 °F 51.8 °F 60% 30.12 in 6.2 mi ENE 1.2 mph - N/A   Partly Cloudy
11:30 AM 68.0 °F 51.8 °F 56% 30.12 in 6.2 mi SE 2.3 mph - N/A   Partly Cloudy
12:00 PM 69 °F 51 °F 42% 30.13 in - SW 10.4 mph - -  
12:00 PM 68.0 °F 50.0 °F 52% 30.12 in 6.2 mi SW 5.8 mph - N/A   Partly Cloudy
12:30 PM 66.2 °F 53.6 °F 64% 30.12 in 6.2 mi SW 11.5 mph - N/A   Partly Cloudy
1:00 PM 68 °F 55 °F 55% 30.12 in - SW 13.8 mph - -  
1:00 PM 66.2 °F 55.4 °F 68% 30.09 in 6.2 mi WSW 12.7 mph - N/A   Partly Cloudy
1:30 PM 66.2 °F 55.4 °F 68% 30.09 in 6.2 mi SW 13.8 mph - N/A   Partly Cloudy
2:00 PM 69 °F 53 °F 47% 30.10 in 16 mi SW 15.0 mph - -   Scattered Clouds
2:00 PM 68.0 °F 51.8 °F 56% 30.09 in 6.2 mi SW 15.0 mph - N/A   Partly Cloudy
2:30 PM 66.2 °F 53.6 °F 64% 30.09 in 6.2 mi WSW 16.1 mph - N/A   Partly Cloudy
3:00 PM 69 °F 55 °F 51% 30.09 in - SW 16.1 mph - -  
3:00 PM 66.2 °F 55.4 °F 68% 30.09 in 6.2 mi SW 15.0 mph - N/A   Partly Cloudy
3:30 PM 66.2 °F 55.4 °F 68% 30.06 in 6.2 mi SW 15.0 mph - N/A   Partly Cloudy
4:00 PM 67 °F 54 °F 52% 30.07 in - SW 15.0 mph - -  
4:00 PM 66.2 °F 55.4 °F 68% 30.06 in 6.2 mi SW 12.7 mph - N/A   Partly Cloudy
4:30 PM 66.2 °F 53.6 °F 64% 30.06 in 6.2 mi SW 13.8 mph - N/A   Partly Cloudy
5:00 PM 67 °F 54 °F 53% 30.06 in 16 mi SW 13.8 mph - -   Scattered Clouds
5:00 PM 66.2 °F 53.6 °F 64% 30.06 in 6.2 mi SW 12.7 mph - N/A   Partly Cloudy
5:30 PM 66.2 °F 53.6 °F 64% 30.04 in 6.2 mi SW 12.7 mph - N/A   Partly Cloudy
6:00 PM 67 °F 54 °F 52% 30.06 in - SW 12.7 mph - -  
6:00 PM 66.2 °F 53.6 °F 64% 30.04 in 6.2 mi WSW 12.7 mph - N/A   Partly Cloudy
6:30 PM 64.4 °F 53.6 °F 68% 30.04 in 6.2 mi SW 11.5 mph - N/A   Partly Cloudy
7:00 PM 66 °F 53 °F 53% 30.05 in - SW 10.4 mph - -  
7:00 PM 64.4 °F 53.6 °F 68% 30.04 in 6.2 mi SW 9.2 mph - N/A   Partly Cloudy
7:30 PM 64.4 °F 53.6 °F 68% 30.04 in 6.2 mi SW 9.2 mph - N/A   Partly Cloudy
8:00 PM 63 °F 54 °F 65% 30.05 in 16 mi SW 9.2 mph - -   Scattered Clouds
8:00 PM 62.6 °F 53.6 °F 72% 30.04 in 6.2 mi SW 6.9 mph - N/A   Partly Cloudy
8:30 PM 62.6 °F 53.6 °F 72% 30.04 in 6.2 mi SW 4.6 mph - N/A   Partly Cloudy
9:00 PM 61 °F 54 °F 73% 30.05 in - SW 5.8 mph - -  
9:00 PM 62.6 °F 55.4 °F 77% 30.04 in - SW 3.5 mph - N/A   Clear
9:30 PM 60.8 °F 55.4 °F 82% 30.04 in - Calm Calm - N/A   Clear
10:00 PM 58 °F 53 °F 76% 30.06 in - Calm Calm - -  
10:00 PM 59.0 °F 51.8 °F 77% 30.04 in - Calm Calm - N/A   Clear
10:30 PM 55.4 °F 51.8 °F 88% 30.04 in - Calm Calm - N/A   Clear
11:00 PM 55 °F 52 °F 85% 30.06 in 9 mi Calm Calm - -   Clear
11:00 PM 55.4 °F 51.8 °F 88% 30.06 in - Calm Calm - N/A   Clear
11:30 PM 53.6 °F 50.0 °F 88% 30.04 in - Calm Calm - N/A   Clear